This is the latest recevied weather packets stored in our database for station/object KFLP. If no packets are shown the sender has not sent any weather packets the latest 1 day(s).
| Time | Temp. | Humidity | Pressure | Rain* | Wind** | Luminosity | Snow |
|---|---|---|---|---|---|---|---|
| 1836274578 | 22.78° C | 73% | 1017.3 hPa | - | 1.34 m/s, 290° | - | - |
| 1836274430 | 22.78° C | 73% | 1017.3 hPa | - | 1.34 m/s, 290° | - | - |
| 1836273978 | 22.78° C | 73% | 1017.3 hPa | - | 1.34 m/s, 290° | - | - |
| 1778049215 | 7.78° C | 100% | 1012.9 hPa | - | 2.24 m/s, 350° | - | - |
| 1778048609 | 7.78° C | 100% | 1012.9 hPa | - | 2.24 m/s, 350° | - | - |
| 1778048008 | 7.78° C | 100% | 1012.9 hPa | - | 4.02 m/s, 20° | - | - |
| 1778047413 | 7.78° C | 100% | 1012.9 hPa | - | 4.02 m/s, 20° | - | - |
| 1778046810 | 8.89° C | 93% | 1012.2 hPa | - | 2.24 m/s, 20° | - | - |
| 1778046214 | 8.89° C | 93% | 1012.2 hPa | - | 2.24 m/s, 20° | - | - |
| 1778045607 | 8.89° C | 93% | 1012.2 hPa | - | 2.24 m/s, 20° | - | - |
| 1778045009 | 8.89° C | 93% | 1012.2 hPa | - | 2.24 m/s, 20° | - | - |
| 1778044408 | 8.89° C | 93% | 1012.2 hPa | - | 2.24 m/s, 20° | - | - |
| 1778043811 | 8.89° C | 93% | 1012.2 hPa | - | 2.24 m/s, 20° | - | - |
| 1778043208 | 8.89° C | 93% | 1012.2 hPa | - | 1.79 m/s, 10° | - | - |
| 1778042610 | 8.89° C | 93% | 1012.2 hPa | - | 1.79 m/s, 10° | - | - |
| 1778042010 | 8.89° C | 93% | 1012.2 hPa | - | 1.79 m/s, 10° | - | - |
| 1778041410 | 8.89° C | 93% | 1012.5 hPa | - | 1.79 m/s, 350° | - | - |
| 1778040812 | 8.89° C | 93% | 1012.5 hPa | - | 1.79 m/s, 350° | - | - |
| 1778040330 | 8.89° C | 93% | 1012.5 hPa | - | 1.79 m/s, 350° | - | - |
| 1778039607 | 8.89° C | 93% | 1011.9 hPa | - | 2.24 m/s, 10° | - | - |
| 1778039015 | 8.89° C | 93% | 1011.5 hPa | - | 3.58 m/s, 10° | - | - |
| 1778038413 | 8.89° C | 93% | 1011.5 hPa | - | 3.58 m/s, 10° | - | - |
| 1778037812 | 8.89° C | 93% | 1011.5 hPa | - | 3.58 m/s, 10° | - | - |
| 1778037208 | 8.89° C | 93% | 1011.5 hPa | - | 3.58 m/s, 10° | - | - |
| 1778036607 | 8.89° C | 93% | 1011.5 hPa | - | 3.58 m/s, 10° | - | - |
* Rain since midnight (hover to see other rain measurements)
** Current wind speed in m/s (hover to see current wind gust speed)